This is the latest recevied weather packets stored in our database for station/object OE6PLD-13. If no packets are shown the sender has not sent any weather packets the latest 10 day(s).
| Time | Temp. | Humidity | Pressure | Rain* | Wind** | Luminosity | Snow |
|---|---|---|---|---|---|---|---|
| 1777909249 | 27.78° C | 30% | 1010.7 hPa | 0.76 mm | - | 170 W/m² | - |
| 1777909066 | 27.78° C | 31% | 1010.6 hPa | 0.76 mm | - | 177 W/m² | - |
| 1777908882 | 27.22° C | 31% | 1010.7 hPa | 0.76 mm | - | 178 W/m² | - |
| 1777908699 | 27.22° C | 31% | 1010.9 hPa | 0.76 mm | - | 180 W/m² | - |
| 1777908516 | 27.78° C | 31% | 1010.7 hPa | 0.76 mm | - | 78 W/m² | - |
| 1777908332 | 27.78° C | 31% | 1010.8 hPa | 0.76 mm | - | 224 W/m² | - |
| 1777908149 | 27.22° C | 32% | 1010.8 hPa | 0.76 mm | - | 228 W/m² | - |
| 1777907965 | 27.22° C | 32% | 1010.9 hPa | 0.76 mm | - | 239 W/m² | - |
| 1777907782 | 27.78° C | 31% | 1010.9 hPa | 0.76 mm | - | 239 W/m² | - |
| 1777907599 | 27.78° C | 31% | 1010.9 hPa | 0.76 mm | - | 264 W/m² | - |
| 1777907415 | 27.78° C | 31% | 1010.9 hPa | 0.76 mm | - | 272 W/m² | - |
| 1777907232 | 27.78° C | 31% | 1010.9 hPa | 0.76 mm | - | 235 W/m² | - |
| 1777907049 | 27.78° C | 32% | 1010.9 hPa | 0.76 mm | - | 226 W/m² | - |
| 1777906865 | 27.78° C | 31% | 1011.1 hPa | 0.76 mm | - | 256 W/m² | - |
| 1777906682 | 27.78° C | 33% | 1011.1 hPa | 0.76 mm | - | 257 W/m² | - |
| 1777906499 | 27.78° C | 32% | 1011.1 hPa | 0.76 mm | - | 259 W/m² | - |
| 1777906315 | 27.78° C | 32% | 1011.3 hPa | 0.76 mm | - | 272 W/m² | - |
| 1777906132 | 28.33° C | 32% | 1011 hPa | 0.76 mm | - | 258 W/m² | - |
| 1777905949 | 28.33° C | 33% | 1011.2 hPa | 0.76 mm | - | 290 W/m² | - |
| 1777905765 | 28.33° C | 33% | 1011.1 hPa | 0.76 mm | - | 311 W/m² | - |
| 1777905582 | 27.78° C | 34% | 1011.1 hPa | 0.76 mm | - | 323 W/m² | - |
| 1777905399 | 27.78° C | 34% | 1011.3 hPa | 0.76 mm | - | 345 W/m² | - |
| 1777905215 | 27.78° C | 34% | 1011.5 hPa | 0.76 mm | - | 363 W/m² | - |
| 1777905032 | 27.22° C | 34% | 1011.3 hPa | 0.76 mm | - | 371 W/m² | - |
| 1777904848 | 27.78° C | 34% | 1011.4 hPa | 0.76 mm | - | 381 W/m² | - |
* Rain latest hour (hover to see other rain measurements)
** Current wind speed in m/s (hover to see current wind gust speed)